Location: Weatherford
(35.5260°N, 98.7070°W)
Time: 04:04:30
(UTC-06:00)

OPAL - Visible Passes

Search period start: 31 January 2015 00:00
Search period end: 10 February 2015 00:00
Orbit: 744 x 796 km, 100.2° (Epoch: 30 January)

Date Brightness Start Highest point End Pass type
(mag) Time Alt. Az. Time Alt. Az. Time Alt. Az.
31 Jan 8.5 05:50:58 10° SE 05:55:56 49° ENE 06:01:00 10° N visible
31 Jan 8.3 19:42:40 10° N 19:47:38 50° WNW 19:52:29 10° SW visible
01 Feb 9.8 05:16:57 10° ESE 05:20:52 23° ENE 05:24:57 10° NNE visible
01 Feb 8.0 06:54:40 10° S 06:59:32 40° W 07:04:26 10° NNW visible
01 Feb 7.4 19:07:17 10° NNE 19:12:23 71° ESE 19:17:25 10° S visible
01 Feb 10.4 20:48:23 10° NW 20:50:45 13° WNW 20:52:49 10° W visible
02 Feb 10.6 04:45:26 10° ENE 04:45:57 10° ENE 04:46:50 10° NE visible
02 Feb 7.6 06:18:58 10° SSE 06:24:11 89° ENE 06:29:27 10° NNW visible
02 Feb 8.3 18:32:32 10° NE 18:36:57 30° E 18:41:22 10° SSE visible
02 Feb 9.4 20:11:26 10° N 20:15:46 28° WNW 20:19:58 10° WSW visible
03 Feb 8.9 05:44:13 10° SE 05:49:00 40° ENE 05:53:53 10° N visible
03 Feb 7.9 19:35:36 10° N 19:40:40 63° WNW 19:45:37 10° SSW visible
04 Feb 10.1 05:10:31 10° ESE 05:13:58 19° ENE 05:17:36 10° NNE visible
04 Feb 7.8 06:47:28 10° S 06:52:31 50° WSW 06:57:35 10° NNW visible
04 Feb 7.6 19:00:22 10° NNE 19:05:22 56° ESE 19:10:18 10° S visible
04 Feb 10.2 20:40:45 10° NNW 20:43:51 16° WNW 20:46:42 10° W visible
05 Feb 7.8 06:12:02 10° SSE 06:17:12 73° ENE 06:22:27 10° N visible
05 Feb 8.6 18:25:51 10° NE 18:29:52 24° E 18:33:56 10° SSE visible
05 Feb 9.1 20:04:14 10° N 20:08:50 34° WNW 20:13:18 10° SW visible
06 Feb 9.3 05:37:30 10° SE 05:42:04 32° ENE 05:46:43 10° N visible
06 Feb 7.6 19:28:35 10° NNE 19:33:41 78° WNW 19:38:41 10° SSW visible
07 Feb 10.3 05:04:15 10° E 05:07:04 15° ENE 05:10:08 10° NNE visible
07 Feb 7.6 06:40:21 10° S 06:45:30 62° WSW 06:50:41 10° NNW visible
07 Feb 7.8 18:53:30 10° NNE 18:58:20 44° E 19:03:07 10° S visible
07 Feb 10.0 20:33:19 10° NNW 20:36:55 19° WNW 20:40:20 10° WSW visible
08 Feb 8.2 06:05:09 10° SSE 06:10:14 59° ENE 06:15:23 10° N visible
08 Feb 8.7 19:57:05 10° N 20:01:52 42° WNW 20:06:32 10° SW visible
09 Feb 9.6 05:30:53 10° ESE 05:35:08 27° ENE 05:39:30 10° N visible
09 Feb 7.4 19:21:34 10° NNE 19:26:41 84° ESE 19:31:40 10° SSW visible
09 Feb 10.5 21:03:52 10° NW 21:04:56 10° WNW 21:05:40 10° WNW visible
